Weather History for Langley AFB, VA

Change the Weather History Date:

Monday, April 29, 2013

  Actual Average Record
Temperature  
Mean Temperature 60 °F -  
Max Temperature 65 °F 66 °F 89 °F (1981)
Min Temperature 57 °F 50 °F 39 °F (1993)
Degree Days  
Heating Degree Days 4    
Growing Degree Days 10 (Base 50)    
Moisture  
Dew Point 52 °F    
Average Humidity 75    
Maximum Humidity 91    
Minimum Humidity 55    
Precipitation  
Precipitation 0.86 in - - ()
Sea Level Pressure  
Sea Level Pressure 30.08 in    
Wind  
Wind Speed 5 mph (ESE)    
Max Wind Speed 16 mph    
Max Gust Speed 22 mph    
Visibility 3 miles    
Events Rain    
Averages and records for this station are not official NWS values.
T = Trace of Precipitation, MM = Missing Value Source: NWS Daily Summary

Daily Weather History Graph

Daily Weather History Graph

Search for Another Location

Airport:

Trip Planner

Search our weather history database for the weather conditions in past years. The results will help you decide how hot, cold, wet, or windy it might be!

Date:

Astronomy

Apr. 29, 2013 Rise Set
Actual Time 6:13 AM EDT 7:53 PM EDT
Civil Twilight 5:45 AM EDT 8:20 PM EDT
Nautical Twilight 5:11 AM EDT 8:54 PM EDT
Astronomical Twilight 4:36 AM EDT 9:30 PM EDT
Moon No Moon Rise 9:33 AM EDT (4/29)
Length of Visible Light 14h 35m
Length of Day
13h 40m
Waning Gibbous, 80% of the Moon is Illuminated
Apr 29
Waning Gibbous
May 2
Last Quarter
May 9
New
May 18
First Quarter
May 25
Full

Hourly Weather History & Observations

Time (EDT) Temp. Dew Point Humidity Pressure Visibility Wind Dir Wind Speed Gust Speed Precip Events Conditions
12:19 AM 57.2 °F 53.6 °F 88% 30.16 in 10.0 mi SSE 3.5 mph - N/A   Overcast
12:26 AM 57.2 °F 53.6 °F 88% 30.16 in 10.0 mi Calm Calm - N/A Rain Light Rain
12:33 AM 57.2 °F 53.6 °F 88% 30.16 in 9.0 mi SSW 3.5 mph - N/A Rain Light Rain
12:55 AM 57.6 °F 55.0 °F 91% 30.16 in 7.0 mi SSE 3.5 mph - 0.00 in Rain Light Rain
1:02 AM 59.0 °F 55.4 °F 88% 30.16 in 6.0 mi SSE 3.5 mph - N/A Rain Light Rain
1:15 AM 59.0 °F 55.4 °F 88% 30.16 in 4.0 mi Calm Calm - N/A Rain Light Rain
1:55 AM 58.3 °F 54.9 °F 88% 30.16 in 4.0 mi Calm Calm - 0.04 in Rain Light Rain
2:10 AM 59.0 °F 55.4 °F 88% 30.15 in 2.5 mi Calm Calm - N/A Rain Rain
2:16 AM 59.0 °F 55.4 °F 88% 30.15 in 2.0 mi Calm Calm - N/A Rain Light Rain
2:17 AM 59.0 °F 55.4 °F 88% 30.15 in 2.0 mi Calm Calm - N/A Rain Light Rain
2:21 AM 59.0 °F 55.4 °F 88% 30.15 in 2.5 mi Calm Calm - N/A Rain Light Rain
2:23 AM 59.0 °F 55.4 °F 88% 30.15 in 2.5 mi Calm Calm - N/A Rain Light Rain
2:28 AM 59.0 °F 55.4 °F 88% 30.14 in 3.0 mi Calm Calm - N/A Rain Light Rain
2:38 AM 59.0 °F 55.4 °F 88% 30.14 in 3.0 mi Calm Calm - N/A Rain Light Rain
2:44 AM 59.0 °F 53.6 °F 82% 30.14 in 2.5 mi Calm Calm - N/A Rain Light Rain
2:50 AM 59.0 °F 53.6 °F 82% 30.14 in 2.5 mi Calm Calm - N/A Rain Light Rain
2:55 AM 58.3 °F 54.5 °F 87% 30.14 in 2.0 mi Calm Calm - 0.05 in Rain Rain
2:57 AM 59.0 °F 53.6 °F 82% 30.14 in 1.8 mi Calm Calm - N/A Rain Rain
3:06 AM 59.0 °F 55.4 °F 88% 30.13 in 1.5 mi Calm Calm - N/A Rain Light Rain
3:08 AM 59.0 °F 55.4 °F 88% 30.13 in 1.8 mi Calm Calm - N/A Rain Light Rain
3:14 AM 59.0 °F 55.4 °F 88% 30.13 in 1.8 mi Calm Calm - N/A Rain Light Rain
3:15 AM 59.0 °F 55.4 °F 88% 30.13 in 2.0 mi ESE 3.5 mph - N/A Rain Light Rain
3:21 AM 59.0 °F 55.4 °F 88% 30.13 in 2.0 mi SE 3.5 mph - N/A Rain Rain
3:48 AM 59.0 °F 55.4 °F 88% 30.12 in 2.5 mi SE 4.6 mph - N/A Rain Light Rain
3:55 AM 59.4 °F 54.9 °F 85% 30.12 in 2.5 mi ESE 3.5 mph - 0.09 in Rain Light Rain
4:12 AM 59.0 °F 55.4 °F 88% 30.12 in 2.0 mi ESE 3.5 mph - N/A Rain Light Rain
4:17 AM 59.0 °F 55.4 °F 88% 30.12 in 2.0 mi ESE 5.8 mph - N/A Rain Light Rain
4:23 AM 59.0 °F 55.4 °F 88% 30.12 in 2.5 mi SE 5.8 mph - N/A Rain Light Rain
4:29 AM 59.0 °F 53.6 °F 82% 30.12 in 3.0 mi SE 6.9 mph - N/A Rain Light Rain
4:32 AM 59.0 °F 53.6 °F 82% 30.12 in 3.0 mi SE 6.9 mph - N/A Rain Light Rain
4:35 AM 59.0 °F 53.6 °F 82% 30.12 in 3.0 mi SE 5.8 mph - N/A Rain Light Rain
4:55 AM 59.4 °F 54.3 °F 83% 30.11 in 3.0 mi SE 5.8 mph - 0.06 in Rain Light Rain
5:11 AM 59.0 °F 53.6 °F 82% 30.11 in 3.0 mi ESE 5.8 mph - N/A Rain Light Rain
5:23 AM 59.0 °F 53.6 °F 82% 30.11 in 2.5 mi ESE 6.9 mph - N/A Rain Light Rain
5:42 AM 59.0 °F 53.6 °F 82% 30.11 in 2.5 mi ESE 6.9 mph - N/A Rain Light Rain
5:43 AM 59.0 °F 53.6 °F 82% 30.11 in 3.0 mi ESE 6.9 mph - N/A Rain Light Rain
5:55 AM 59.2 °F 53.8 °F 82% 30.11 in 4.0 mi ESE 6.9 mph - 0.05 in Rain Light Rain
6:01 AM 59.0 °F 53.6 °F 82% 30.11 in 2.5 mi ESE 8.1 mph - N/A Rain Light Rain
6:05 AM 59.0 °F 53.6 °F 82% 30.11 in 2.0 mi ESE 8.1 mph - N/A Rain Light Rain
6:08 AM 59.0 °F 53.6 °F 82% 30.11 in 2.0 mi ESE 8.1 mph - N/A Rain Light Rain
6:12 AM 59.0 °F 53.6 °F 82% 30.12 in 2.5 mi ESE 8.1 mph - N/A Rain Light Rain
6:14 AM 59.0 °F 53.6 °F 82% 30.12 in 2.5 mi ESE 5.8 mph - N/A Rain Light Rain
6:23 AM 59.0 °F 53.6 °F 82% 30.12 in 2.0 mi SE 3.5 mph - N/A Rain Light Rain
6:30 AM 59.0 °F 53.6 °F 82% 30.12 in 1.2 mi ESE 5.8 mph - N/A Rain Light Rain
6:47 AM 59.0 °F 53.6 °F 82% 30.13 in 1.0 mi ESE 6.9 mph - N/A Rain Rain
6:52 AM 59.0 °F 53.6 °F 82% 30.12 in 1.0 mi ESE 6.9 mph - N/A Rain Rain
6:55 AM 58.8 °F 53.4 °F 82% 30.12 in 1.0 mi ESE 6.9 mph - 0.09 in Rain Rain
7:00 AM 59.0 °F 53.6 °F 82% 30.12 in 1.0 mi ESE 6.9 mph - N/A Rain Light Rain
7:04 AM 59.0 °F 53.6 °F 82% 30.12 in 1.2 mi SE 5.8 mph - N/A Rain Light Rain
7:07 AM 59.0 °F 53.6 °F 82% 30.12 in 1.5 mi ESE 5.8 mph - N/A Rain Light Rain
7:41 AM 59.0 °F 53.6 °F 82% 30.13 in 1.8 mi ESE 4.6 mph - N/A Rain Light Rain
7:42 AM 59.0 °F 53.6 °F 82% 30.13 in 1.8 mi ESE 4.6 mph - N/A Rain Light Rain
7:50 AM 59.0 °F 53.6 °F 82% 30.13 in 1.5 mi East 4.6 mph - N/A Rain Light Rain
7:53 AM 59.0 °F 53.6 °F 82% 30.12 in 1.5 mi East 5.8 mph - N/A Rain Rain
8:05 AM 59.0 °F 51.8 °F 77% 30.11 in 1.2 mi East 11.5 mph - N/A Rain Light Rain
8:07 AM 59.0 °F 51.8 °F 77% 30.11 in 1.5 mi East 11.5 mph - N/A Rain Light Rain
8:12 AM 59.0 °F 53.6 °F 82% 30.11 in 1.5 mi East 11.5 mph - N/A Rain Light Rain
8:15 AM 59.0 °F 51.8 °F 77% 30.11 in 1.8 mi East 11.5 mph - N/A Rain Light Rain
8:18 AM 59.0 °F 51.8 °F 77% 30.11 in 1.8 mi ESE 10.4 mph - N/A Rain Light Rain
8:25 AM 59.0 °F 51.8 °F 77% 30.11 in 1.8 mi ESE 11.5 mph - N/A Rain Light Rain
8:27 AM 59.0 °F 51.8 °F 77% 30.11 in 1.5 mi ESE 11.5 mph - N/A Rain Light Rain
8:32 AM 59.0 °F 51.8 °F 77% 30.11 in 1.8 mi ESE 10.4 mph - N/A Rain Light Rain
8:37 AM 59.0 °F 51.8 °F 77% 30.11 in 2.0 mi ESE 12.7 mph - N/A Rain Light Rain
8:39 AM 59.0 °F 51.8 °F 77% 30.11 in 2.0 mi ESE 11.5 mph - N/A Rain Light Rain
8:43 AM 59.0 °F 51.8 °F 77% 30.11 in 1.8 mi ESE 9.2 mph - N/A Rain Light Rain
8:44 AM 59.0 °F 51.8 °F 77% 30.11 in 1.5 mi SE 9.2 mph - N/A Rain Light Rain
8:49 AM 59.0 °F 51.8 °F 77% 30.11 in 1.2 mi ESE 6.9 mph - N/A Rain Light Rain
8:54 AM 59.0 °F 51.8 °F 77% 30.11 in 1.2 mi ESE 6.9 mph - N/A Rain Light Rain
9:03 AM 57.2 °F 51.8 °F 82% 30.12 in 1.2 mi SE 5.8 mph - N/A Rain Light Rain
9:12 AM 59.0 °F 51.8 °F 77% 30.12 in 1.0 mi SE 5.8 mph - N/A Rain Rain
9:19 AM 57.2 °F 51.8 °F 82% 30.12 in 1.0 mi SE 5.8 mph - N/A Rain Light Rain
9:25 AM 57.2 °F 51.8 °F 82% 30.11 in 0.8 mi ESE 8.1 mph - N/A Rain Rain
9:31 AM 57.2 °F 51.8 °F 82% 30.11 in 0.8 mi ESE 6.9 mph - N/A Rain Rain
9:34 AM 57.2 °F 51.8 °F 82% 30.11 in 0.8 mi ESE 6.9 mph - N/A Rain Rain
9:43 AM 57.2 °F 51.8 °F 82% 30.11 in 0.8 mi ESE 9.2 mph - N/A Rain Light Rain
9:44 AM 57.2 °F 51.8 °F 82% 30.11 in 1.0 mi ESE 9.2 mph - N/A Rain Light Rain
9:46 AM 57.2 °F 51.8 °F 82% 30.11 in 1.0 mi ESE 6.9 mph - N/A Rain Light Rain
9:49 AM 57.2 °F 51.8 °F 82% 30.12 in 1.2 mi Variable 3.5 mph - N/A Rain Light Rain
9:53 AM 57.2 °F 51.8 °F 82% 30.12 in 1.5 mi ESE 4.6 mph - N/A Rain Light Rain
9:58 AM 57.2 °F 51.8 °F 82% 30.12 in 1.2 mi SE 9.2 mph - N/A Rain Light Rain
10:06 AM 57.2 °F 51.8 °F 82% 30.12 in 1.0 mi ESE 8.1 mph - N/A Rain Light Rain
10:11 AM 57.2 °F 51.8 °F 82% 30.12 in 0.8 mi SE 8.1 mph - N/A Rain Heavy Rain
10:15 AM 57.2 °F 51.8 °F 82% 30.12 in 0.8 mi ESE 9.2 mph - N/A Rain Heavy Rain
10:16 AM 57.2 °F 51.8 °F 82% 30.12 in 0.5 mi ESE 9.2 mph - N/A Rain Heavy Rain
10:39 AM 57.2 °F 51.8 °F 82% 30.11 in 0.8 mi ESE 12.7 mph - N/A Rain Light Rain
10:41 AM 57.2 °F 51.8 °F 82% 30.11 in 0.8 mi ESE 12.7 mph - N/A Rain Light Rain
10:55 AM 57.9 °F 52.2 °F 81% 30.11 in 0.8 mi SE 11.5 mph - 0.24 in Rain Light Rain
10:56 AM 57.2 °F 51.8 °F 82% 30.11 in 1.0 mi ESE 12.7 mph - N/A Rain Light Rain
11:38 AM 57.2 °F 51.8 °F 82% 30.09 in 1.2 mi ESE 13.8 mph - N/A Rain Light Rain
11:43 AM 57.2 °F 51.8 °F 82% 30.09 in 1.8 mi ESE 16.1 mph - N/A Rain Light Rain
11:48 AM 57.2 °F 51.8 °F 82% 30.09 in 2.0 mi ESE 13.8 mph - N/A Rain Light Rain
11:53 AM 57.2 °F 51.8 °F 82% 30.09 in 1.8 mi ESE 16.1 mph 21.9 mph N/A Rain Light Rain
11:58 AM 57.2 °F 51.8 °F 82% 30.08 in 1.8 mi ESE 16.1 mph 21.9 mph 0.08 in Rain Light Rain
12:03 PM 57.2 °F 51.8 °F 82% 30.08 in 2.0 mi ESE 12.7 mph - N/A Rain Light Rain
12:08 PM 57.2 °F 51.8 °F 82% 30.08 in 2.5 mi ESE 12.7 mph 19.6 mph N/A Rain Light Rain
12:13 PM 57.2 °F 51.8 °F 82% 30.08 in 3.0 mi ESE 15.0 mph 19.6 mph N/A Rain Light Rain
12:23 PM 57.2 °F 51.8 °F 82% 30.08 in 3.0 mi ESE 15.0 mph - N/A Rain Light Rain
12:33 PM 57.2 °F 51.8 °F 82% 30.07 in 3.0 mi ESE 13.8 mph - N/A Rain Light Rain
12:53 PM 59.0 °F 51.8 °F 77% 30.06 in 3.0 mi SE 15.0 mph 20.7 mph N/A Rain Light Rain
12:58 PM 58.3 °F 51.8 °F 79% 30.06 in 3.0 mi SE 11.5 mph - 0.02 in Rain Light Rain
1:43 PM 59.0 °F 53.6 °F 82% 30.06 in 2.0 mi ESE 11.5 mph - N/A Rain Light Rain
1:53 PM 59.0 °F 53.6 °F 82% 30.05 in 4.0 mi ESE 9.2 mph - N/A Rain Light Rain
1:58 PM 59.5 °F 52.7 °F 78% 30.05 in 4.0 mi ESE 10.4 mph - 0.03 in Rain Light Rain
2:08 PM 59.0 °F 51.8 °F 77% 30.05 in 1.2 mi ESE 10.4 mph - N/A Rain Light Rain
2:13 PM 60.8 °F 53.6 °F 77% 30.05 in 0.8 mi ESE 9.2 mph - N/A Rain Light Rain
2:28 PM 60.8 °F 51.8 °F 72% 30.04 in 1.0 mi ESE 9.2 mph - N/A Rain Light Rain
2:33 PM 60.8 °F 53.6 °F 77% 30.04 in 1.0 mi ESE 8.1 mph - N/A Rain Light Rain
2:38 PM 60.8 °F 53.6 °F 77% 30.04 in 1.0 mi SE 8.1 mph - N/A Rain Light Rain
2:43 PM 60.8 °F 53.6 °F 77% 30.04 in 1.0 mi ESE 9.2 mph - N/A Rain Light Rain
2:48 PM 60.8 °F 53.6 °F 77% 30.04 in 1.2 mi ESE 9.2 mph - N/A Rain Light Rain
2:53 PM 60.8 °F 53.6 °F 77% 30.04 in 1.5 mi ESE 9.2 mph - N/A Rain Light Rain
2:56 PM 60.8 °F 53.6 °F 77% 30.04 in 1.8 mi ESE 5.8 mph - N/A   Haze
2:58 PM 60.8 °F 53.6 °F 77% 30.04 in 1.8 mi SE 4.6 mph - 0.07 in   Haze
3:03 PM 60.8 °F 53.6 °F 77% 30.03 in 4.0 mi SE 8.1 mph - N/A   Haze
3:04 PM 60.8 °F 53.6 °F 77% 30.03 in 4.0 mi SE 10.4 mph - N/A Rain Light Rain
3:09 PM 60.8 °F 53.6 °F 77% 30.03 in 3.0 mi SE 9.2 mph - N/A Rain Light Rain
3:17 PM 60.8 °F 53.6 °F 77% 30.03 in 3.0 mi SE 8.1 mph - N/A   Haze
3:32 PM 62.6 °F 53.6 °F 72% 30.03 in 6.0 mi SE 8.1 mph - N/A   Haze
3:47 PM 64.4 °F 51.8 °F 64% 30.02 in 8.0 mi SSE 6.9 mph - N/A   Overcast
3:52 PM 64.4 °F 51.8 °F 64% 30.02 in 9.0 mi SSE 5.8 mph - N/A   Overcast
3:57 PM 64.4 °F 51.8 °F 64% 30.02 in 10.0 mi SSE 9.2 mph - N/A   Overcast
3:58 PM 63.9 °F 51.8 °F 65% 30.02 in 10.0 mi SSE 9.2 mph - 0.00 in   Overcast
4:08 PM 64.4 °F 51.8 °F 64% 30.01 in 10.0 mi SSE 8.1 mph - N/A   Overcast
4:13 PM 64.4 °F 51.8 °F 64% 30.01 in 10.0 mi SSE 8.1 mph - N/A   Overcast
4:24 PM 64.4 °F 51.8 °F 64% 30.01 in 10.0 mi SSE 9.2 mph - N/A Rain Light Rain
4:29 PM 64.4 °F 51.8 °F 64% 30.01 in 10.0 mi South 9.2 mph - N/A Rain Light Rain
4:35 PM 64.4 °F 51.8 °F 64% 30.01 in 9.0 mi South 6.9 mph - N/A   Overcast
4:45 PM 64.4 °F 51.8 °F 64% 30.01 in 10.0 mi South 6.9 mph - N/A   Overcast
4:50 PM 64.4 °F 51.8 °F 64% 30.01 in 10.0 mi South 6.9 mph - N/A   Overcast
4:58 PM 64.2 °F 51.8 °F 64% 30.01 in 10.0 mi SSE 6.9 mph - 0.00 in   Overcast
5:26 PM 64.4 °F 51.8 °F 64% 30.01 in 10.0 mi SE 5.8 mph - N/A Rain Light Rain
5:38 PM 64.4 °F 51.8 °F 64% 30.01 in 5.0 mi ESE 5.8 mph - N/A   Haze
5:58 PM 64.9 °F 51.1 °F 61% 30.01 in 8.0 mi ESE 6.9 mph - 0.00 in   Mostly Cloudy
6:03 PM 64.4 °F 51.8 °F 64% 30.01 in 8.0 mi ESE 5.8 mph - N/A   Mostly Cloudy
6:09 PM 64.4 °F 50.0 °F 59% 30.00 in 8.0 mi ESE 6.9 mph - N/A Rain Light Rain
6:29 PM 64.4 °F 51.8 °F 64% 30.01 in 6.0 mi SE 5.8 mph - N/A Rain Light Rain
6:40 PM 62.6 °F 50.0 °F 63% 30.01 in 7.0 mi SE 4.6 mph - N/A   Mostly Cloudy
6:49 PM 62.6 °F 50.0 °F 63% 30.01 in 8.0 mi ESE 5.8 mph - N/A Rain Light Rain
6:55 PM 62.6 °F 50.0 °F 63% 30.01 in 7.0 mi SE 5.8 mph - N/A   Mostly Cloudy
6:58 PM 62.6 °F 50.5 °F 65% 30.01 in 7.0 mi ESE 5.8 mph - 0.01 in   Scattered Clouds
7:00 PM 62.6 °F 50.0 °F 63% 30.01 in 7.0 mi SE 4.6 mph - N/A   Scattered Clouds
7:10 PM 62.6 °F 50.0 °F 63% 30.01 in 6.0 mi ESE 4.6 mph - N/A   Haze
7:20 PM 62.6 °F 50.0 °F 63% 30.01 in 5.0 mi ESE 4.6 mph - N/A   Haze
7:30 PM 62.6 °F 50.0 °F 63% 30.01 in 5.0 mi East 4.6 mph - N/A Rain Light Rain
7:35 PM 62.6 °F 50.0 °F 63% 30.01 in 4.0 mi East 4.6 mph - N/A Rain Light Rain
7:40 PM 62.6 °F 50.0 °F 63% 30.01 in 4.0 mi ESE 4.6 mph - N/A   Haze
7:44 PM 62.6 °F 50.0 °F 63% 30.01 in 4.0 mi ESE 5.8 mph - N/A Rain Light Rain
7:45 PM 62.6 °F 50.0 °F 63% 30.01 in 4.0 mi ESE 4.6 mph - N/A   Haze
7:55 PM 60.8 °F 50.0 °F 68% 30.01 in 4.0 mi ESE 4.6 mph - N/A Rain Light Rain
7:58 PM 60.8 °F 50.0 °F 68% 30.01 in 4.0 mi ESE 4.6 mph - 0.00 in Rain Light Rain
8:08 PM 60.8 °F 50.0 °F 68% 30.01 in 3.0 mi ESE 5.8 mph - N/A   Light Drizzle
8:17 PM 60.8 °F 50.0 °F 68% 30.02 in 4.0 mi ESE 4.6 mph - N/A   Haze
8:20 PM 60.8 °F 50.0 °F 68% 30.02 in 4.0 mi ESE 4.6 mph - N/A Rain Light Rain
8:32 PM 60.8 °F 50.0 °F 68% 30.03 in 3.0 mi East 3.5 mph - N/A   Haze
8:36 PM 60.8 °F 50.0 °F 68% 30.03 in 3.0 mi East 4.6 mph - N/A Rain Light Rain
8:41 PM 60.8 °F 50.0 °F 68% 30.03 in 2.5 mi East 4.6 mph - N/A Rain Light Rain
8:46 PM 60.8 °F 50.0 °F 68% 30.03 in 2.5 mi East 4.6 mph - N/A Rain Light Rain
8:48 PM 60.8 °F 50.0 °F 68% 30.03 in 2.0 mi East 4.6 mph - N/A   Haze
8:53 PM 60.8 °F 50.0 °F 68% 30.03 in 1.8 mi East 4.6 mph - N/A   Haze
8:58 PM 60.8 °F 50.0 °F 68% 30.03 in 1.5 mi ESE 5.8 mph - 0.00 in   Haze
9:03 PM 60.8 °F 50.0 °F 68% 30.03 in 1.2 mi East 4.6 mph - N/A   Haze
9:08 PM 60.8 °F 50.0 °F 68% 30.04 in 1.0 mi ESE 4.6 mph - N/A   Haze
9:13 PM 60.8 °F 50.0 °F 68% 30.04 in 0.5 mi ESE 5.8 mph - N/A   Haze
9:23 PM 60.8 °F 48.2 °F 63% 30.04 in 0.8 mi East 4.6 mph - N/A   Haze
9:24 PM 60.8 °F 48.2 °F 63% 30.04 in 0.8 mi East 3.5 mph - N/A Rain Light Rain
9:29 PM 60.8 °F 48.2 °F 63% 30.04 in 1.0 mi ENE 1.2 mph - N/A Rain Light Rain
9:39 PM 60.8 °F 48.2 °F 63% 30.04 in 0.8 mi ENE 3.5 mph - N/A Rain Light Rain
9:44 PM 60.8 °F 48.2 °F 63% 30.04 in 0.5 mi ENE 3.5 mph - N/A Rain Light Rain
9:49 PM 60.8 °F 48.2 °F 63% 30.04 in 0.2 mi NE 2.3 mph - N/A Rain Light Rain
9:58 PM 61.0 °F 47.3 °F 61% 30.04 in 0.2 mi ENE 4.6 mph - 0.03 in Rain Light Rain
10:14 PM 60.8 °F 48.2 °F 63% 30.04 in 0.2 mi ENE 4.6 mph - N/A   Haze
10:16 PM 60.8 °F 48.2 °F 63% 30.04 in 0.5 mi NE 4.6 mph - N/A Rain Light Rain
10:35 PM 60.8 °F 46.4 °F 59% 30.04 in 0.5 mi ENE 4.6 mph - N/A   Haze
10:45 PM 60.8 °F 46.4 °F 59% 30.04 in 0.8 mi NNE 4.6 mph - N/A   Haze
10:50 PM 60.8 °F 46.4 °F 59% 30.04 in 1.2 mi NE 4.6 mph - N/A   Haze
10:58 PM 60.1 °F 46.6 °F 61% 30.04 in 1.2 mi NNE 4.6 mph - 0.00 in   Haze
11:03 PM 59.0 °F 46.4 °F 63% 30.04 in 1.8 mi NE 5.8 mph - N/A   Haze
11:08 PM 59.0 °F 46.4 °F 63% 30.04 in 2.0 mi NE 5.8 mph - N/A   Haze
11:13 PM 59.0 °F 46.4 °F 63% 30.04 in 2.0 mi NE 4.6 mph - N/A   Haze
11:18 PM 59.0 °F 46.4 °F 63% 30.04 in 2.5 mi NE 5.8 mph - N/A   Haze
11:23 PM 59.0 °F 46.4 °F 63% 30.04 in 2.0 mi NE 5.8 mph - N/A   Haze
11:28 PM 59.0 °F 46.4 °F 63% 30.04 in 1.8 mi NE 5.8 mph - N/A   Haze
11:33 PM 59.0 °F 42.8 °F 55% 30.04 in 1.8 mi NE 5.8 mph - N/A   Haze
11:38 PM 59.0 °F 46.4 °F 63% 30.04 in 2.0 mi NE 5.8 mph - N/A   Haze
11:43 PM 59.0 °F 46.4 °F 63% 30.04 in 2.0 mi ENE 4.6 mph - N/A   Haze
11:58 PM 59.0 °F 46.2 °F 63% 30.06 in 1.5 mi ENE 3.5 mph - N/A   Haze